Weather History for KRIC - November, 2013

Change the Weather History Date:

Saturday, November 2, 2013

  Actual Average Record
Temperature  
Mean Temperature 66 °F 55 °F  
Max Temperature 77 °F 66 °F 84 °F (1950)
Min Temperature 54 °F 43 °F 23 °F (1930)
Degree Days  
Heating Degree Days 0 11  
Month to date heating degree days 0 21  
Since 1 July heating degree days 150 254  
Cooling Degree Days 1 0  
Month to date cooling degree days 8 0  
Year to date cooling degree days 1678 1543  
Growing Degree Days 17 (Base 50)    
Moisture  
Dew Point 50 °F    
Average Humidity 57    
Maximum Humidity 90    
Minimum Humidity 23    
Precipitation  
Precipitation 0.00 in 0.11 in 1.66 in (1956)
Month to date precipitation T 0.22  
Year to date precipitation 44.51 37.32  
Snow  
Snow 0.00 in 0.00 in 0.00 in (2002)
Month to date snowfall 0.0 0.0  
Since 1 July snowfall 0.0 0.0  
Snow Depth 0.00 in    
Sea Level Pressure  
Sea Level Pressure 29.74 in    
Wind  
Wind Speed 7 mph (WNW)    
Max Wind Speed 20 mph    
Max Gust Speed 24 mph    
Visibility 10 miles    
Events      
T = Trace of Precipitation, MM = Missing Value Source: NWS Daily Summary

Daily Weather History Graph

Daily Weather History Graph

Search for Another Location

Airport or City:

Trip Planner

Search our weather history database for the weather conditions in past years. The results will help you decide how hot, cold, wet, or windy it might be!

Date:

Astronomy

Nov. 02, 2013 Rise Set
Actual Time 7:35 AM EDT 6:09 PM EDT
Civil Twilight 7:08 AM EDT 6:36 PM EDT
Nautical Twilight 6:37 AM EDT 7:07 PM EDT
Astronomical Twilight 6:06 AM EDT 7:38 PM EDT
Moon 6:31 AM EDT (11/2) 5:39 PM EDT (11/2)
Length of Visible Light 11h 28m
Length of Day
10h 34m
Waning Crescent, 1% of the Moon is Illuminated
Nov 2
Waning Crescent
Nov 3
New
Nov 10
First Quarter
Nov 17
Full
Nov 25
Last Quarter

Hourly Weather History & Observations

Time (EDT) Temp. Dew Point Humidity Pressure Visibility Wind Dir Wind Speed Gust Speed Precip Events Conditions
12:23 AM 68.0 °F 64.4 °F 88% 29.67 in 10.0 mi SSW 6.9 mph - N/A   Mostly Cloudy
12:54 AM 68.0 °F 64.0 °F 87% 29.67 in 10.0 mi SW 6.9 mph - N/A   Mostly Cloudy
1:54 AM 68.0 °F 63.0 °F 84% 29.67 in 10.0 mi WSW 6.9 mph - N/A   Mostly Cloudy
2:54 AM 66.0 °F 61.0 °F 84% 29.67 in 10.0 mi WNW 5.8 mph - N/A   Mostly Cloudy
3:54 AM 64.9 °F 60.1 °F 84% 29.67 in 10.0 mi West 4.6 mph - N/A   Overcast
4:11 AM 64.4 °F 59.0 °F 83% 29.65 in 10.0 mi WNW 6.9 mph - N/A   Overcast
4:54 AM 64.0 °F 59.0 °F 84% 29.68 in 10.0 mi WNW 5.8 mph - N/A   Overcast
5:54 AM 63.0 °F 59.0 °F 87% 29.71 in 10.0 mi WNW 4.6 mph - N/A   Mostly Cloudy
6:54 AM 61.0 °F 57.9 °F 90% 29.71 in 10.0 mi NNW 3.5 mph - N/A   Mostly Cloudy
7:54 AM 61.0 °F 57.9 °F 90% 29.71 in 9.0 mi WNW 4.6 mph - N/A   Mostly Cloudy
8:54 AM 62.1 °F 57.0 °F 84% 29.74 in - WNW 3.5 mph - N/A   Clear
9:54 AM 64.0 °F 55.0 °F 73% 29.75 in 10.0 mi WNW 5.8 mph - N/A   Mostly Cloudy
10:54 AM 68.0 °F 53.1 °F 59% 29.74 in 10.0 mi Calm Calm - N/A   Scattered Clouds
11:54 AM 72.0 °F 46.0 °F 40% 29.75 in 10.0 mi West 10.4 mph - N/A   Scattered Clouds
12:54 PM 71.1 °F 45.0 °F 39% 29.73 in 10.0 mi West 6.9 mph - N/A   Scattered Clouds
1:54 PM 73.9 °F 42.1 °F 32% 29.70 in 10.0 mi West 9.2 mph - N/A   Scattered Clouds
2:54 PM 75.0 °F 42.1 °F 31% 29.69 in 10.0 mi West 6.9 mph - N/A   Scattered Clouds
3:54 PM 75.0 °F 36.0 °F 24% 29.69 in 10.0 mi West 15.0 mph - N/A   Scattered Clouds
4:54 PM 73.0 °F 37.0 °F 27% 29.71 in 10.0 mi West 13.8 mph - N/A   Mostly Cloudy
5:54 PM 70.0 °F 36.0 °F 29% 29.73 in 10.0 mi West 9.2 mph - N/A   Mostly Cloudy
6:54 PM 66.9 °F 36.0 °F 32% 29.77 in 10.0 mi West 5.8 mph - N/A   Mostly Cloudy
7:45 PM 62.6 °F 42.8 °F 48% 29.79 in 10.0 mi North 10.4 mph - N/A   Mostly Cloudy
7:54 PM 63.0 °F 42.1 °F 46% 29.82 in 10.0 mi North 11.5 mph - N/A   Mostly Cloudy
8:54 PM 61.0 °F 41.0 °F 48% 29.83 in 10.0 mi North 8.1 mph - N/A   Scattered Clouds
9:54 PM 59.0 °F 41.0 °F 51% 29.87 in 10.0 mi North 11.5 mph - N/A   Overcast
10:54 PM 57.9 °F 37.9 °F 47% 29.90 in 10.0 mi North 8.1 mph - N/A   Overcast
11:54 PM 55.9 °F 39.0 °F 53% 29.92 in 10.0 mi NNW 5.8 mph - N/A   Overcast